Location: *
(24.1434°N, 56.8729°E)
Time: 05:32:20
(UTC+00:00)

Cosmos 2058 Rocket - Pass Details

Date: 09 April 2020
Orbit: 610 x 640 km, 82.5° (Epoch: 26 May)

Event Time Altitude Azimuth Distance (km) Brightness Sun altitude
Rises 15:31:55 0° 173° (S) 2,924 6.3 -14.2°
Reaches altitude 10° 15:34:12 10° 168° (SSE) 2,020 5.4 -14.7°
Maximum altitude 15:38:33 50° 93° (E) 811 3.2 -15.7°
Drops below altitude 10° 15:42:54 10° 18° (NNE) 2,029 5.7 -16.6°
Sets 15:45:12 0° 13° (NNE) 2,939 6.6 -17.1°
